QPF
0.00 0.00 0.01 0.01 0.01 0.00 0.00 0.01 0.01 0.00 0.00 0.00 0.00 0.00 0.00 0.00 0.00 0.00 0.00 0.00 0.01 0.01 0.02 0.02 0.02 0.01 0.00 0.01 0.01 0.01 0.01 0.01 0.00 0.01 0.01 0.01 0.01 0.00 0.01 0.01 0.01 0.01 0.01 0.02
0.00 0.00 0.01 0.01 0.01 0.00 0.00 0.00 0.00 0.00 0.01 0.00 0.00 0.00 0.00 0.00 0.00 0.00 0.00 0.00 0.00 0.01 0.02 0.02 0.02 0.01 0.01 0.01 0.01 0.01 0.01 0.01 0.00 0.01 0.02 0.02 0.02 0.01 0.00 0.01 0.01 0.01 0.02 0.02
0.00 0.00 0.00 0.01 0.01 0.01 0.00 0.00 0.00 0.01 0.00 0.00 0.00 0.00 0.00 0.00 0.00 0.00 0.00 0.01 0.01 0.01 0.01 0.02 0.02 0.01 0.01 0.02 0.01 0.01 0.01 0.00 0.01 0.02 0.02 0.01 0.01 0.01 0.01 0.01 0.01 0.01 0.02 0.03
0.01 0.01 0.01 0.01 0.01 0.01 0.01 0.00 0.01 0.01 0.00 0.00 0.00 0.01 0.01 0.00 0.00 0.00 0.01 0.01 0.01 0.00 0.01 0.01 0.01 0.01 0.01 0.01 0.01 0.01 0.01 0.01 0.01 0.01 0.01 0.01 0.01 0.01 0.01 0.01 0.01 0.01 0.02 0.02
0.01 0.02 0.01 0.01 0.01 0.02 0.02 0.01 0.01 0.01 0.00 0.01 0.01 0.01 0.01 0.01 0.01 0.00 0.00 0.00 0.00 0.00 0.00 0.01 0.01 0.01 0.01 0.01 0.01 0.01 0.01 0.01 0.01 0.01 0.01 0.01 0.01 0.01 0.01 0.01 0.01 0.02 0.02 0.02
0.01 0.02 0.01 0.01 0.01 0.01 0.02 0.02 0.01 0.00 0.00 0.00 0.01 0.01 0.01 0.01 0.00 0.00 0.00 0.00 0.00 0.00 0.00 0.01 0.01 0.01 0.01 0.01 0.01 0.01 0.01 0.01 0.01 0.01 0.01 0.01 0.01 0.01 0.02 0.02 0.02 0.01 0.01 0.01
0.01 0.01 0.01 0.01 0.01 0.01 0.03 0.04 0.02 0.00 0.00 0.00 0.00 0.01 0.01 0.00 0.00 0.00 0.00 0.00 0.00 0.00 0.00 0.01 0.01 0.01 0.01 0.01 0.01 0.01 0.01 0.01 0.01 0.01 0.02 0.02 0.03 0.03 0.02 0.02 0.01 0.01 0.01 0.01
0.01 0.01 0.01 0.01 0.01 0.02 0.03 0.02 0.03 0.02 0.01 0.00 0.00 0.01 0.00 0.01 0.01 0.00 0.00 0.00 0.00 0.01 0.01 0.01 0.01 0.01 0.01 0.01 0.01 0.01 0.01 0.02 0.02 0.02 0.03 0.03 0.03 0.03 0.02 0.02 0.02 0.02 0.02 0.01
0.01 0.01 0.00 0.01 0.02 0.05 0.03 0.02 0.02 0.03 0.02 0.01 0.00 0.00 0.01 0.00 0.00 0.00 0.00 0.00 0.01 0.01 0.01 0.01 0.02 0.02 0.02 0.02 0.02 0.01 0.02 0.02 0.02 0.02 0.02 0.02 0.03 0.03 0.03 0.02 0.02 0.02 0.02 0.01
0.01 0.00 0.00 0.00 0.01 0.02 0.01 0.02 0.02 0.02 0.02 0.02 0.01 0.00 0.01 0.00 0.00 0.00 0.00 0.00 0.01 0.01 0.00 0.01 0.01 0.01 0.02 0.02 0.02 0.02 0.02 0.02 0.02 0.02 0.02 0.02 0.02 0.02 0.03 0.02 0.02 0.01 0.01 0.01
0.01 0.00 0.00 0.00 0.00 0.01 0.01 0.01 0.01 0.02 0.02 0.02 0.01 0.01 0.01 0.00 0.00 0.00 0.00 0.00 0.01 0.01 0.01 0.00 0.00 0.00 0.01 0.02 0.02 0.02 0.02 0.02 0.03 0.03 0.03 0.03 0.02 0.02 0.02 0.02 0.02 0.02 0.01 0.01
0.01 0.00 0.00 0.00 0.00 0.00 0.00 0.00 0.00 0.01 0.01 0.01 0.01 0.01 0.01 0.01 0.01 0.01 0.01 0.01 0.01 0.02 0.01 0.01 0.00 0.00 0.01 0.02 0.02 0.02 0.02 0.02 0.02 0.02 0.02 0.03 0.03 0.02 0.02 0.02 0.02 0.01 0.01 0.01
0.01 0.01 0.01 0.01 0.01 0.00 0.00 0.00 0.00 0.00 0.00 0.00 0.01 0.01 0.01 0.01 0.00 0.00 0.00 0.00 0.01 0.01 0.01 0.00 0.00 0.00 0.00 0.01 0.01 0.02 0.01 0.02 0.02 0.02 0.03 0.03 0.03 0.02 0.02 0.02 0.01 0.01 0.01 0.01
0.00 0.01 0.01 0.01 0.00 0.00 0.00 0.00 0.00 0.00 0.00 0.00 0.00 0.00 0.01 0.01 0.00 0.00 0.00 0.00 0.00 0.01 0.00 0.00 0.00 0.00 0.00 0.01 0.01 0.01 0.01 0.01 0.01 0.02 0.02 0.03 0.03 0.03 0.02 0.02 0.02 0.01 0.01 0.01
0.01 0.01 0.01 0.00 0.00 0.00 0.00 0.00 0.00 0.00 0.00 0.00 0.00 0.01 0.01 0.01 0.01 0.00 0.00 0.00 0.01 0.00 0.00 0.00 0.00 0.00 0.00 0.01 0.01 0.01 0.01 0.02 0.01 0.01 0.02 0.01 0.02 0.02 0.02 0.01 0.01 0.01 0.01 0.02
0.01 0.01 0.00 0.00 0.00 0.00 0.00 0.00 0.00 0.01 0.00 0.00 0.01 0.01 0.01 0.01 0.01 0.01 0.01 0.01 0.01 0.00 0.00 0.00 0.00 0.00 0.00 0.00 0.01 0.01 0.01 0.02 0.02 0.02 0.02 0.01 0.01 0.02 0.02 0.01 0.01 0.01 0.01 0.02
0.01 0.01 0.01 0.01 0.00 0.01 0.01 0.00 0.01 0.01 0.01 0.01 0.01 0.01 0.02 0.02 0.01 0.01 0.01 0.01 0.01 0.00 0.00 0.00 0.00 0.00 0.00 0.00 0.00 0.01 0.01 0.01 0.02 0.01 0.01 0.01 0.01 0.02 0.01 0.01 0.01 0.01 0.01 0.01
0.01 0.01 0.01 0.01 0.01 0.01 0.01 0.01 0.01 0.01 0.01 0.01 0.01 0.01 0.02 0.01 0.01 0.01 0.01 0.01 0.01 0.00 0.00 0.00 0.00 0.00 0.00 0.00 0.00 0.00 0.01 0.01 0.01 0.02 0.01 0.01 0.02 0.02 0.02 0.01 0.01 0.02 0.02 0.02
0.01 0.01 0.01 0.01 0.01 0.01 0.01 0.01 0.01 0.01 0.01 0.02 0.02 0.02 0.02 0.01 0.01 0.01 0.01 0.01 0.01 0.01 0.00 0.00 0.00 0.00 0.00 0.00 0.00 0.00 0.00 0.00 0.01 0.02 0.02 0.01 0.02 0.02 0.02 0.02 0.02 0.03 0.03 0.03
0.00 0.00 0.00 0.00 0.01 0.01 0.01 0.01 0.01 0.01 0.02 0.02 0.02 0.01 0.01 0.01 0.00 0.01 0.01 0.01 0.01 0.01 0.00 0.00 0.00 0.00 0.00 0.00 0.00 0.00 0.00 0.01 0.01 0.02 0.02 0.01 0.02 0.03 0.02 0.02 0.02 0.03 0.03 0.03
0.00 0.00 0.00 0.01 0.01 0.01 0.01 0.01 0.01 0.01 0.01 0.01 0.01 0.01 0.00 0.00 0.00 0.01 0.02 0.02 0.01 0.01 0.01 0.00 0.00 0.00 0.00 0.00 0.01 0.01 0.01 0.01 0.01 0.02 0.02 0.02 0.02 0.02 0.02 0.02 0.02 0.03 0.03 0.03
0.00 0.01 0.01 0.01 0.01 0.01 0.01 0.01 0.01 0.01 0.01 0.01 0.01 0.01 0.00 0.00 0.01 0.01 0.02 0.03 0.03 0.01 0.01 0.01 0.00 0.01 0.01 0.01 0.01 0.01 0.01 0.01 0.01 0.02 0.02 0.02 0.02 0.03 0.02 0.02 0.02 0.02 0.03 0.03
0.01 0.01 0.01 0.01 0.01 0.02 0.02 0.01 0.01 0.01 0.01 0.01 0.01 0.01 0.01 0.01 0.01 0.02 0.02 0.03 0.03 0.03 0.02 0.01 0.01 0.01 0.01 0.01 0.01 0.01 0.01 0.01 0.02 0.02 0.02 0.02 0.02 0.02 0.02 0.02 0.02 0.02 0.01 0.01
0.01 0.01 0.01 0.01 0.02 0.02 0.02 0.02 0.01 0.01 0.01 0.01 0.01 0.01 0.01 0.01 0.01 0.01 0.02 0.03 0.03 0.02 0.01 0.01 0.01 0.01 0.01 0.01 0.01 0.01 0.01 0.02 0.02 0.03 0.03 0.03 0.03 0.02 0.02 0.03 0.03 0.02 0.01 0.01
0.01 0.01 0.01 0.01 0.01 0.02 0.02 0.02 0.01 0.01 0.01 0.01 0.01 0.01 0.01 0.01 0.01 0.01 0.01 0.01 0.01 0.01 0.01 0.01 0.02 0.02 0.01 0.01 0.01 0.01 0.02 0.02 0.03 0.04 0.04 0.04 0.04 0.03 0.03 0.03 0.03 0.02 0.02 0.02
0.02 0.02 0.02 0.02 0.01 0.01 0.01 0.02 0.02 0.01 0.01 0.01 0.01 0.01 0.01 0.01 0.01 0.01 0.01 0.01 0.01 0.01 0.01 0.01 0.01 0.01 0.01 0.02 0.02 0.02 0.02 0.03 0.03 0.04 0.05 0.04 0.04 0.03 0.03 0.03 0.02 0.02 0.01 0.01
0.01 0.01 0.01 0.01 0.01 0.02 0.02 0.02 0.02 0.02 0.02 0.01 0.02 0.02 0.02 0.02 0.01 0.01 0.01 0.01 0.01 0.02 0.02 0.02 0.02 0.02 0.02 0.02 0.02 0.02 0.02 0.02 0.02 0.03 0.03 0.03 0.03 0.03 0.02 0.02 0.01 0.01 0.01 0.01
MSLP
1013.91 1013.64 1013.45 1013.33 1013.26 1013.22 1013.15 1013.04 1012.84 1012.55 1012.17 1011.73 1011.27 1010.84 1010.50 1010.29 1010.23 1010.33 1010.59 1010.98 1011.48 1012.04 1012.65 1013.27 1013.89 1014.50 1015.10 1015.70 1016.29 1016.87 1017.43 1017.97 1018.49 1018.98 1019.43 1019.86 1020.26 1020.65 1021.03 1021.40 1021.76 1022.11 1022.43 1022.72
1013.90 1013.55 1013.22 1012.91 1012.62 1012.36 1012.10 1011.84 1011.55 1011.23 1010.89 1010.54 1010.20 1009.90 1009.67 1009.54 1009.52 1009.63 1009.86 1010.20 1010.64 1011.17 1011.76 1012.40 1013.07 1013.77 1014.47 1015.18 1015.88 1016.56 1017.20 1017.81 1018.38 1018.90 1019.39 1019.85 1020.28 1020.70 1021.12 1021.52 1021.90 1022.27 1022.60 1022.88
1013.72 1013.33 1012.88 1012.41 1011.94 1011.47 1011.03 1010.61 1010.22 1009.86 1009.54 1009.25 1009.01 1008.83 1008.71 1008.66 1008.70 1008.83 1009.05 1009.37 1009.79 1010.30 1010.89 1011.55 1012.27 1013.04 1013.85 1014.66 1015.45 1016.22 1016.94 1017.62 1018.23 1018.80 1019.31 1019.80 1020.26 1020.70 1021.14 1021.56 1021.97 1022.34 1022.68 1022.96
1013.29 1012.85 1012.33 1011.74 1011.12 1010.50 1009.90 1009.35 1008.87 1008.47 1008.15 1007.91 1007.76 1007.67 1007.66 1007.70 1007.81 1007.99 1008.24 1008.57 1008.98 1009.49 1010.09 1010.79 1011.56 1012.39 1013.27 1014.16 1015.04 1015.89 1016.68 1017.40 1018.06 1018.65 1019.19 1019.70 1020.18 1020.64 1021.09 1021.52 1021.93 1022.31 1022.64 1022.92
1012.52 1012.07 1011.50 1010.84 1010.13 1009.40 1008.71 1008.08 1007.54 1007.11 1006.80 1006.60 1006.52 1006.53 1006.61 1006.75 1006.94 1007.18 1007.48 1007.84 1008.28 1008.81 1009.44 1010.16 1010.97 1011.86 1012.79 1013.74 1014.68 1015.58 1016.42 1017.18 1017.87 1018.49 1019.04 1019.56 1020.04 1020.51 1020.96 1021.39 1021.80 1022.18 1022.51 1022.78
1011.43 1010.96 1010.37 1009.70 1008.96 1008.20 1007.47 1006.81 1006.25 1005.83 1005.54 1005.40 1005.38 1005.47 1005.65 1005.88 1006.16 1006.48 1006.84 1007.26 1007.73 1008.29 1008.95 1009.69 1010.53 1011.44 1012.41 1013.39 1014.37 1015.30 1016.16 1016.95 1017.66 1018.29 1018.86 1019.38 1019.86 1020.33 1020.77 1021.20 1021.60 1021.97 1022.29 1022.56
1010.06 1009.58 1009.01 1008.36 1007.65 1006.92 1006.22 1005.59 1005.07 1004.68 1004.45 1004.36 1004.42 1004.59 1004.85 1005.17 1005.54 1005.93 1006.36 1006.83 1007.35 1007.94 1008.61 1009.37 1010.22 1011.14 1012.11 1013.10 1014.08 1015.03 1015.90 1016.70 1017.42 1018.06 1018.63 1019.15 1019.64 1020.10 1020.54 1020.96 1021.35 1021.71 1022.03 1022.30
1008.53 1008.04 1007.50 1006.90 1006.27 1005.62 1005.01 1004.47 1004.02 1003.72 1003.55 1003.54 1003.67 1003.92 1004.25 1004.65 1005.09 1005.55 1006.04 1006.55 1007.11 1007.72 1008.40 1009.16 1009.99 1010.90 1011.85 1012.83 1013.80 1014.73 1015.61 1016.41 1017.13 1017.78 1018.36 1018.88 1019.37 1019.83 1020.27 1020.69 1021.08 1021.44 1021.76 1022.04
1006.94 1006.45 1005.95 1005.43 1004.90 1004.38 1003.89 1003.47 1003.14 1002.93 1002.86 1002.93 1003.13 1003.44 1003.84 1004.30 1004.79 1005.31 1005.84 1006.38 1006.96 1007.57 1008.24 1008.98 1009.79 1010.66 1011.58 1012.52 1013.47 1014.38 1015.24 1016.04 1016.77 1017.42 1018.01 1018.55 1019.05 1019.52 1019.96 1020.38 1020.78 1021.14 1021.48 1021.78
1005.41 1004.92 1004.46 1004.03 1003.62 1003.24 1002.89 1002.61 1002.41 1002.32 1002.34 1002.49 1002.76 1003.12 1003.57 1004.06 1004.59 1005.14 1005.69 1006.25 1006.83 1007.43 1008.08 1008.78 1009.55 1010.37 1011.25 1012.15 1013.05 1013.94 1014.79 1015.59 1016.32 1016.98 1017.59 1018.14 1018.65 1019.13 1019.59 1020.03 1020.44 1020.83 1021.19 1021.52
1004.03 1003.53 1003.12 1002.77 1002.48 1002.23 1002.03 1001.89 1001.82 1001.83 1001.94 1002.16 1002.48 1002.88 1003.36 1003.88 1004.42 1004.98 1005.53 1006.09 1006.65 1007.23 1007.85 1008.51 1009.23 1010.00 1010.82 1011.68 1012.55 1013.41 1014.24 1015.03 1015.77 1016.44 1017.07 1017.64 1018.17 1018.67 1019.15 1019.61 1020.05 1020.47 1020.86 1021.23
1002.83 1002.34 1001.96 1001.69 1001.50 1001.36 1001.28 1001.26 1001.29 1001.40 1001.59 1001.86 1002.22 1002.65 1003.14 1003.66 1004.21 1004.76 1005.30 1005.84 1006.39 1006.94 1007.52 1008.14 1008.80 1009.53 1010.30 1011.11 1011.95 1012.79 1013.60 1014.39 1015.13 1015.81 1016.45 1017.03 1017.58 1018.10 1018.60 1019.09 1019.55 1020.01 1020.44 1020.86
1001.79 1001.31 1000.98 1000.77 1000.66 1000.61 1000.63 1000.69 1000.80 1000.98 1001.22 1001.53 1001.91 1002.35 1002.84 1003.37 1003.91 1004.45 1004.98 1005.50 1006.02 1006.54 1007.09 1007.67 1008.30 1008.98 1009.71 1010.49 1011.29 1012.11 1012.91 1013.68 1014.42 1015.10 1015.74 1016.34 1016.89 1017.42 1017.94 1018.44 1018.94 1019.43 1019.90 1020.37
1000.86 1000.42 1000.14 999.99 999.93 999.95 1000.03 1000.15 1000.31 1000.53 1000.80 1001.13 1001.52 1001.97 1002.46 1002.98 1003.51 1004.04 1004.56 1005.07 1005.57 1006.07 1006.59 1007.14 1007.74 1008.38 1009.08 1009.83 1010.61 1011.40 1012.18 1012.94 1013.66 1014.34 1014.97 1015.56 1016.11 1016.64 1017.16 1017.67 1018.19 1018.70 1019.22 1019.72
999.99 999.62 999.39 999.29 999.29 999.35 999.46 999.61 999.80 1000.04 1000.32 1000.66 1001.05 1001.50 1001.99 1002.50 1003.03 1003.56 1004.07 1004.57 1005.06 1005.55 1006.05 1006.59 1007.16 1007.78 1008.45 1009.17 1009.92 1010.69 1011.45 1012.19 1012.89 1013.54 1014.14 1014.71 1015.24 1015.75 1016.26 1016.77 1017.29 1017.83 1018.37 1018.92
999.12 998.84 998.69 998.65 998.69 998.79 998.92 999.09 999.28 999.52 999.80 1000.14 1000.53 1000.98 1001.46 1001.98 1002.51 1003.03 1003.55 1004.05 1004.54 1005.02 1005.51 1006.03 1006.59 1007.19 1007.84 1008.54 1009.26 1009.99 1010.72 1011.43 1012.09 1012.71 1013.28 1013.81 1014.31 1014.80 1015.28 1015.78 1016.30 1016.84 1017.40 1017.98
998.22 998.06 998.01 998.05 998.14 998.26 998.41 998.58 998.78 999.00 999.28 999.61 1000.00 1000.44 1000.92 1001.44 1001.97 1002.50 1003.02 1003.52 1004.01 1004.50 1004.99 1005.50 1006.04 1006.62 1007.25 1007.92 1008.61 1009.31 1010.00 1010.67 1011.30 1011.87 1012.40 1012.89 1013.35 1013.79 1014.25 1014.72 1015.23 1015.77 1016.34 1016.93
997.28 997.27 997.34 997.47 997.61 997.77 997.94 998.11 998.30 998.51 998.77 999.09 999.47 999.90 1000.39 1000.90 1001.44 1001.97 1002.50 1003.01 1003.50 1003.99 1004.47 1004.98 1005.51 1006.07 1006.68 1007.31 1007.97 1008.63 1009.29 1009.91 1010.49 1011.03 1011.51 1011.96 1012.38 1012.79 1013.21 1013.65 1014.14 1014.67 1015.25 1015.85
996.33 996.48 996.68 996.90 997.12 997.32 997.50 997.67 997.85 998.06 998.30 998.60 998.97 999.39 999.87 1000.39 1000.92 1001.46 1001.99 1002.50 1003.00 1003.48 1003.96 1004.46 1004.97 1005.52 1006.10 1006.71 1007.33 1007.96 1008.57 1009.16 1009.70 1010.19 1010.64 1011.05 1011.43 1011.81 1012.21 1012.63 1013.10 1013.61 1014.18 1014.80
995.41 995.72 996.04 996.36 996.64 996.88 997.08 997.26 997.44 997.63 997.86 998.15 998.50 998.91 999.37 999.88 1000.41 1000.94 1001.47 1001.99 1002.48 1002.97 1003.45 1003.94 1004.44 1004.97 1005.53 1006.11 1006.70 1007.29 1007.87 1008.42 1008.93 1009.39 1009.81 1010.19 1010.55 1010.91 1011.29 1011.69 1012.14 1012.65 1013.21 1013.82
994.57 995.01 995.45 995.84 996.18 996.46 996.68 996.87 997.04 997.22 997.44 997.71 998.04 998.44 998.89 999.38 999.90 1000.43 1000.96 1001.47 1001.97 1002.46 1002.94 1003.42 1003.92 1004.43 1004.97 1005.53 1006.09 1006.66 1007.21 1007.73 1008.21 1008.66 1009.06 1009.43 1009.78 1010.12 1010.49 1010.88 1011.32 1011.82 1012.37 1012.97
993.84 994.38 994.89 995.35 995.73 996.03 996.27 996.46 996.64 996.81 997.02 997.28 997.60 997.98 998.42 998.90 999.41 999.93 1000.45 1000.97 1001.47 1001.96 1002.45 1002.93 1003.43 1003.94 1004.47 1005.01 1005.55 1006.09 1006.62 1007.12 1007.59 1008.02 1008.41 1008.78 1009.12 1009.47 1009.83 1010.22 1010.66 1011.14 1011.67 1012.26
993.25 993.84 994.38 994.87 995.27 995.59 995.84 996.04 996.22 996.40 996.61 996.87 997.18 997.55 997.97 998.44 998.95 999.46 999.99 1000.51 1001.02 1001.52 1002.01 1002.51 1003.01 1003.53 1004.05 1004.58 1005.11 1005.64 1006.15 1006.64 1007.09 1007.51 1007.90 1008.26 1008.61 1008.96 1009.33 1009.72 1010.15 1010.62 1011.14 1011.71
992.79 993.37 993.92 994.40 994.80 995.13 995.39 995.60 995.80 995.99 996.21 996.47 996.79 997.16 997.58 998.05 998.55 999.07 999.60 1000.13 1000.65 1001.17 1001.68 1002.19 1002.71 1003.23 1003.75 1004.28 1004.81 1005.32 1005.82 1006.29 1006.73 1007.14 1007.52 1007.89 1008.24 1008.60 1008.96 1009.36 1009.78 1010.25 1010.76 1011.32
992.44 992.97 993.47 993.93 994.32 994.64 994.92 995.16 995.38 995.60 995.85 996.13 996.46 996.85 997.28 997.75 998.25 998.78 999.31 999.86 1000.39 1000.93 1001.47 1002.00 1002.53 1003.06 1003.59 1004.12 1004.63 1005.13 1005.61 1006.07 1006.50 1006.90 1007.27 1007.63 1007.99 1008.34 1008.72 1009.11 1009.54 1010.01 1010.51 1011.05
992.14 992.60 993.04 993.45 993.82 994.15 994.45 994.71 994.98 995.24 995.53 995.86 996.22 996.63 997.08 997.56 998.08 998.61 999.16 999.71 1000.27 1000.82 1001.37 1001.92 1002.47 1003.01 1003.54 1004.07 1004.57 1005.06 1005.52 1005.96 1006.36 1006.75 1007.11 1007.47 1007.82 1008.18 1008.55 1008.95 1009.39 1009.86 1010.36 1010.90
991.86 992.23 992.61 992.98 993.33 993.67 993.99 994.30 994.61 994.94 995.29 995.66 996.07 996.51 996.99 997.49 998.02 998.56 999.11 999.68 1000.24 1000.81 1001.37 1001.93 1002.49 1003.04 1003.57 1004.09 1004.58 1005.05 1005.49 1005.90 1006.29 1006.66 1007.01 1007.35 1007.70 1008.06 1008.44 1008.85 1009.30 1009.78 1010.29 1010.84
Thickness
5653 5652 5651 5649 5649 5648 5648 5652 5651 5656 5657 5661 5662 5659 5657 5655 5653 5651 5650 5649 5648 5646 5645 5643 5642 5641 5640 5639 5639 5639 5638 5638 5637 5637 5635 5634 5633 5632 5631 5630 5629 5629 5627 5626
5644 5644 5643 5642 5646 5646 5645 5647 5648 5649 5651 5659 5658 5655 5652 5650 5647 5644 5643 5643 5642 5641 5639 5637 5636 5635 5633 5632 5631 5631 5630 5630 5629 5628 5627 5625 5624 5624 5623 5621 5620 5620 5620 5619
5639 5638 5635 5639 5648 5646 5644 5646 5647 5644 5650 5652 5648 5645 5644 5644 5641 5639 5638 5637 5636 5635 5634 5633 5631 5630 5628 5626 5625 5624 5624 5623 5622 5621 5619 5618 5617 5615 5614 5613 5612 5612 5612 5612
5630 5628 5623 5646 5649 5645 5641 5643 5645 5644 5645 5644 5642 5641 5640 5639 5636 5634 5632 5630 5630 5630 5628 5627 5625 5623 5621 5620 5619 5618 5617 5615 5614 5613 5612 5610 5609 5608 5606 5605 5604 5604 5604 5603
5623 5623 5631 5638 5640 5637 5633 5634 5641 5638 5637 5637 5634 5633 5634 5633 5630 5627 5626 5624 5623 5622 5622 5620 5618 5616 5614 5613 5611 5610 5608 5607 5606 5605 5604 5602 5601 5600 5599 5598 5597 5596 5596 5595
5617 5614 5619 5633 5635 5634 5629 5627 5635 5632 5630 5628 5626 5623 5627 5627 5623 5621 5619 5617 5615 5614 5613 5612 5610 5608 5607 5605 5604 5603 5601 5599 5598 5598 5597 5595 5594 5592 5591 5589 5589 5588 5589 5589
5613 5612 5623 5630 5626 5623 5615 5624 5628 5626 5624 5622 5620 5621 5620 5619 5616 5613 5610 5608 5606 5605 5604 5603 5601 5600 5599 5598 5596 5594 5593 5592 5591 5590 5589 5588 5586 5584 5582 5581 5581 5581 5581 5581
5610 5607 5615 5623 5617 5615 5618 5621 5619 5618 5617 5615 5614 5612 5610 5608 5606 5604 5602 5599 5597 5596 5595 5593 5592 5592 5591 5589 5587 5586 5584 5583 5583 5582 5582 5580 5578 5576 5574 5573 5573 5573 5573 5573
5613 5615 5620 5618 5616 5615 5614 5612 5611 5610 5609 5607 5604 5603 5601 5600 5599 5597 5595 5592 5590 5589 5587 5585 5584 5583 5581 5579 5578 5577 5576 5576 5575 5574 5573 5572 5570 5568 5567 5566 5566 5566 5565 5565
5604 5610 5610 5610 5609 5607 5606 5605 5604 5602 5601 5599 5598 5597 5595 5594 5593 5591 5589 5586 5584 5583 5581 5579 5576 5574 5572 5571 5569 5569 5569 5568 5567 5566 5565 5564 5562 5562 5560 5559 5559 5559 5559 5558
5599 5603 5601 5603 5602 5600 5598 5597 5596 5595 5594 5592 5591 5590 5589 5588 5586 5585 5582 5580 5577 5575 5574 5571 5569 5567 5565 5563 5562 5562 5561 5560 5559 5559 5557 5555 5555 5553 5552 5552 5551 5550 5551 5551
5597 5601 5598 5599 5599 5596 5593 5591 5590 5589 5587 5586 5584 5582 5582 5581 5580 5578 5575 5573 5570 5568 5566 5565 5562 5560 5558 5555 5554 5554 5553 5552 5551 5551 5549 5548 5547 5546 5542 5541 5540 5540 5540 5540
5596 5595 5593 5592 5592 5591 5588 5587 5586 5584 5583 5581 5580 5577 5575 5574 5573 5571 5569 5566 5564 5562 5560 5558 5556 5554 5551 5549 5547 5547 5546 5545 5543 5543 5542 5541 5539 5539 5538 5534 5532 5532 5531 5531
5587 5584 5582 5584 5584 5584 5583 5582 5581 5579 5577 5575 5573 5571 5569 5567 5566 5564 5562 5560 5558 5556 5554 5552 5550 5548 5545 5543 5541 5540 5540 5537 5536 5535 5535 5534 5533 5532 5532 5531 5530 5529 5525 5523
5581 5580 5580 5580 5578 5577 5576 5575 5573 5572 5571 5568 5567 5565 5563 5561 5559 5557 5556 5553 5550 5548 5547 5545 5543 5541 5538 5536 5534 5533 5532 5531 5530 5529 5528 5528 5527 5526 5526 5525 5524 5523 5521 5518
5577 5575 5573 5572 5571 5571 5569 5568 5567 5566 5564 5562 5560 5558 5556 5554 5552 5550 5548 5546 5544 5542 5541 5539 5537 5534 5531 5530 5527 5526 5525 5522 5521 5521 5521 5521 5520 5520 5519 5518 5517 5516 5515 5513
5570 5569 5567 5566 5566 5566 5565 5564 5563 5561 5559 5556 5554 5552 5550 5547 5545 5543 5541 5538 5537 5536 5534 5533 5531 5528 5525 5523 5521 5519 5518 5516 5513 5514 5514 5514 5513 5513 5512 5511 5510 5509 5507 5505
5569 5568 5567 5564 5563 5561 5559 5558 5556 5555 5553 5550 5547 5545 5543 5541 5539 5538 5535 5532 5531 5530 5528 5526 5523 5521 5518 5516 5514 5513 5511 5510 5508 5508 5507 5506 5505 5504 5504 5503 5502 5500 5499 5497
5561 5560 5559 5558 5556 5555 5553 5551 5550 5548 5546 5543 5540 5539 5537 5535 5533 5531 5529 5527 5526 5525 5523 5519 5515 5514 5512 5510 5507 5506 5505 5504 5502 5500 5500 5497 5497 5497 5496 5495 5493 5492 5491 5489
5553 5552 5551 5550 5549 5547 5546 5544 5542 5540 5538 5536 5534 5532 5530 5529 5527 5524 5522 5521 5520 5519 5516 5513 5511 5509 5507 5505 5501 5500 5499 5498 5496 5494 5493 5492 5492 5491 5489 5487 5485 5484 5482 5481
5546 5545 5543 5542 5541 5540 5538 5536 5534 5533 5531 5529 5527 5526 5525 5523 5520 5518 5516 5515 5514 5511 5508 5505 5504 5503 5501 5498 5495 5494 5493 5491 5490 5488 5487 5486 5485 5483 5481 5480 5478 5476 5474 5472
5538 5537 5536 5535 5534 5533 5531 5529 5528 5526 5524 5522 5520 5519 5517 5515 5513 5511 5510 5509 5507 5503 5501 5499 5498 5496 5494 5490 5489 5487 5486 5485 5483 5482 5480 5478 5477 5476 5474 5472 5470 5468 5466 5464
5530 5529 5528 5527 5526 5525 5523 5521 5520 5518 5517 5515 5513 5511 5510 5508 5506 5505 5504 5502 5498 5495 5494 5492 5490 5487 5485 5483 5482 5481 5480 5478 5477 5476 5473 5471 5469 5467 5466 5464 5462 5460 5457 5454
5522 5521 5520 5518 5517 5516 5514 5513 5512 5511 5509 5508 5506 5504 5502 5500 5499 5497 5495 5492 5489 5487 5486 5484 5481 5480 5477 5477 5475 5473 5472 5471 5469 5468 5466 5463 5461 5459 5457 5456 5453 5451 5449 5446
5514 5513 5511 5510 5509 5508 5507 5506 5504 5503 5501 5499 5498 5496 5494 5493 5491 5489 5486 5485 5482 5479 5478 5476 5474 5472 5470 5469 5468 5466 5465 5463 5461 5459 5457 5455 5453 5451 5449 5447 5445 5443 5440 5438
5506 5506 5504 5503 5503 5500 5499 5497 5496 5495 5494 5492 5491 5489 5487 5484 5482 5480 5479 5477 5475 5472 5470 5469 5466 5464 5463 5461 5460 5458 5456 5454 5452 5451 5449 5447 5445 5443 5441 5438 5436 5434 5432 5430
5498 5497 5496 5495 5493 5492 5490 5489 5488 5487 5486 5484 5482 5480 5478 5476 5474 5473 5471 5469 5467 5465 5463 5461 5459 5457 5455 5453 5451 5449 5447 5445 5444 5442 5440 5438 5436 5434 5433 5430 5428 5426 5423 5421